Stündliche Wetter Holodniki

Heute, 22 Juni, Dienstag

Zeit Temperatur Niederschläge Wind Luftdruck Luftfeuchtigkeit
00:00 +21°C° 0 mm 3 m/S 748 mmHg 91%
01:00 +21°C° 0 mm 2 m/S 748 mmHg 93%
02:00 +20°C° 0 mm 2 m/S 748 mmHg 95%
03:00 +21°C° 0 mm 2 m/S 748 mmHg 95%
04:00 +21°C° 0 mm 2 m/S 748 mmHg 94%
05:00 +21°C° 0 mm 2 m/S 748 mmHg 94%
06:00 +24°C° 0 mm 3 m/S 748 mmHg 87%
07:00 +25°C° 0 mm 3 m/S 748 mmHg 79%
08:00 +27°C° 0 mm 4 m/S 748 mmHg 72%
09:00 +28°C° 0 mm 4 m/S 748 mmHg 64%
10:00 +30°C° 0 mm 4 m/S 748 mmHg 56%
11:00 +32°C° 0 mm 5 m/S 748 mmHg 48%
12:00 +33°C° 0 mm 5 m/S 748 mmHg 45%
13:00 +33°C° 0 mm 5 m/S 748 mmHg 41%
14:00 +34°C° 0 mm 5 m/S 748 mmHg 38%
15:00 +33°C° 0 mm 5 m/S 748 mmHg 42%
16:00 +33°C° 0 mm 5 m/S 748 mmHg 47%
17:00 +32°C° 0 mm 4 m/S 748 mmHg 51%
18:00 +29°C° 0 mm 4 m/S 748 mmHg 59%
19:00 +27°C° 0 mm 3 m/S 748 mmHg 67%
20:00 +25°C° 0 mm 3 m/S 748 mmHg 75%
21:00 +24°C° 0 mm 3 m/S 748 mmHg 79%
22:00 +22°C° 0 mm 3 m/S 749 mmHg 84%
23:00 +21°C° 0 mm 3 m/S 749 mmHg 88%

Morgen, 23 Juni, Mittwoch

Zeit Temperatur Niederschläge Wind Luftdruck Luftfeuchtigkeit
00:00 +20°C° 0 mm 3 m/S 749 mmHg 90%
01:00 +20°C° 0 mm 3 m/S 749 mmHg 91%
02:00 +20°C° 0 mm 2 m/S 749 mmHg 93%
03:00 +20°C° 0 mm 2 m/S 749 mmHg 92%
04:00 +20°C° 0 mm 2 m/S 749 mmHg 91%
05:00 +20°C° 0 mm 2 m/S 749 mmHg 90%
06:00 +23°C° 0 mm 2 m/S 750 mmHg 83%
07:00 +25°C° 0 mm 3 m/S 750 mmHg 75%
08:00 +27°C° 0 mm 3 m/S 750 mmHg 67%
09:00 +28°C° 0 mm 3 m/S 750 mmHg 61%
10:00 +30°C° 0 mm 3 m/S 750 mmHg 54%
11:00 +33°C° 0 mm 3 m/S 750 mmHg 48%
12:00 +34°C° 0 mm 3 m/S 750 mmHg 46%
13:00 +34°C° 0 mm 3 m/S 750 mmHg 45%
14:00 +35°C° 0 mm 4 m/S 750 mmHg 44%
15:00 +35°C° 0 mm 4 m/S 750 mmHg 47%
16:00 +34°C° 0 mm 4 m/S 750 mmHg 51%
17:00 +34°C° 0 mm 4 m/S 750 mmHg 55%
18:00 +32°C° 0 mm 4 m/S 750 mmHg 63%
19:00 +29°C° 0 mm 3 m/S 750 mmHg 71%
20:00 +27°C° 0 mm 3 m/S 750 mmHg 79%
21:00 +26°C° 0 mm 3 m/S 750 mmHg 83%
22:00 +25°C° 0 mm 2 m/S 750 mmHg 87%
23:00 +24°C° 0 mm 2 m/S 750 mmHg 91%

übermorgen, 24 Juni, Donnerstag

Zeit Temperatur Niederschläge Wind Luftdruck Luftfeuchtigkeit
00:00 +24°C° 0 mm 2 m/S 750 mmHg 92%
01:00 +23°C° 0 mm 2 m/S 750 mmHg 94%
02:00 +23°C° 0 mm 2 m/S 750 mmHg 95%
03:00 +23°C° 0 mm 2 m/S 750 mmHg 95%
04:00 +23°C° 0 mm 2 m/S 750 mmHg 95%
05:00 +23°C° 0 mm 2 m/S 750 mmHg 95%
06:00 +25°C° 0 mm 2 m/S 750 mmHg 87%
07:00 +26°C° 0 mm 2 m/S 750 mmHg 79%
08:00 +28°C° 0 mm 3 m/S 750 mmHg 71%
09:00 +29°C° 0 mm 3 m/S 750 mmHg 65%
10:00 +31°C° 0 mm 3 m/S 750 mmHg 59%
11:00 +33°C° 0 mm 3 m/S 750 mmHg 53%
12:00 +34°C° 0 mm 3 m/S 750 mmHg 50%
13:00 +35°C° 0 mm 3 m/S 750 mmHg 47%
14:00 +35°C° 0 mm 3 m/S 750 mmHg 43%
15:00 +35°C° 0 mm 3 m/S 750 mmHg 45%
16:00 +35°C° 0 mm 3 m/S 749 mmHg 47%
17:00 +35°C° 0 mm 2 m/S 749 mmHg 49%
18:00 +32°C° 0 mm 2 m/S 749 mmHg 56%
19:00 +30°C° 0 mm 2 m/S 749 mmHg 64%
20:00 +28°C° 0 mm 2 m/S 749 mmHg 72%
21:00 +26°C° 0.3 mm 2 m/S 749 mmHg 76%
22:00 +25°C° 0.3 mm 2 m/S 749 mmHg 81%
23:00 +24°C° 0.3 mm 2 m/S 749 mmHg 85%

25 Juni, Freitag

Zeit Temperatur Niederschläge Wind Luftdruck Luftfeuchtigkeit
00:00 +23°C° 0.1 mm 2 m/S 749 mmHg 86%
01:00 +23°C° 0.1 mm 1 m/S 749 mmHg 87%
02:00 +22°C° 0.1 mm 1 m/S 749 mmHg 88%
03:00 +23°C° 0 mm 1 m/S 749 mmHg 88%
04:00 +23°C° 0 mm 1 m/S 748 mmHg 88%
05:00 +23°C° 0 mm 1 m/S 748 mmHg 88%
06:00 +25°C° 0 mm 1 m/S 749 mmHg 84%
07:00 +26°C° 0 mm 1 m/S 749 mmHg 80%
08:00 +27°C° 0 mm 1 m/S 749 mmHg 75%
09:00 +28°C° 0 mm 2 m/S 749 mmHg 70%
10:00 +30°C° 0 mm 2 m/S 749 mmHg 65%
11:00 +31°C° 0 mm 3 m/S 749 mmHg 59%
12:00 +31°C° 0 mm 3 m/S 749 mmHg 56%
13:00 +33°C° 0 mm 3 m/S 748 mmHg 53%
14:00 +34°C° 0 mm 3 m/S 748 mmHg 50%
15:00 +34°C° 0 mm 3 m/S 748 mmHg 51%
16:00 +34°C° 0 mm 3 m/S 747 mmHg 52%
17:00 +34°C° 0 mm 3 m/S 747 mmHg 53%
18:00 +31°C° 0 mm 2 m/S 747 mmHg 59%
19:00 +29°C° 0 mm 2 m/S 747 mmHg 66%
20:00 +27°C° 0 mm 1 m/S 747 mmHg 72%
21:00 +26°C° 0.1 mm 1 m/S 747 mmHg 76%
22:00 +24°C° 0.1 mm 2 m/S 747 mmHg 80%
23:00 +23°C° 0.1 mm 2 m/S 747 mmHg 84%

26 Juni, Samstag

Zeit Temperatur Niederschläge Wind Luftdruck Luftfeuchtigkeit
00:00 +23°C° 0.5 mm 2 m/S 747 mmHg 86%
01:00 +21°C° 0.5 mm 2 m/S 747 mmHg 88%
02:00 +21°C° 0.5 mm 2 m/S 747 mmHg 90%
03:00 +21°C° 0.2 mm 2 m/S 747 mmHg 91%
04:00 +20°C° 0.2 mm 3 m/S 747 mmHg 92%
05:00 +20°C° 0.2 mm 3 m/S 747 mmHg 94%
06:00 +22°C° 0 mm 3 m/S 747 mmHg 88%
07:00 +24°C° 0 mm 3 m/S 747 mmHg 82%
08:00 +26°C° 0 mm 3 m/S 747 mmHg 77%
09:00 +28°C° 0 mm 3 m/S 747 mmHg 70%
10:00 +29°C° 0 mm 3 m/S 747 mmHg 64%
11:00 +31°C° 0 mm 3 m/S 747 mmHg 58%
12:00 +31°C° 0.1 mm 3 m/S 747 mmHg 57%
13:00 +31°C° 0.1 mm 3 m/S 747 mmHg 56%
14:00 +33°C° 0.1 mm 3 m/S 747 mmHg 55%
15:00 +30°C° 2.3 mm 3 m/S 747 mmHg 63%
16:00 +28°C° 2.3 mm 3 m/S 747 mmHg 72%
17:00 +26°C° 2.3 mm 3 m/S 747 mmHg 80%
18:00 +24°C° 1.5 mm 3 m/S 747 mmHg 84%
19:00 +21°C° 1.5 mm 3 m/S 747 mmHg 87%
20:00 +20°C° 1.5 mm 3 m/S 747 mmHg 91%
21:00 +20°C° 0.6 mm 3 m/S 747 mmHg 92%
22:00 +20°C° 0.6 mm 2 m/S 747 mmHg 93%
23:00 +20°C° 0.6 mm 2 m/S 747 mmHg 94%

27 Juni, Sonntag

Zeit Temperatur Niederschläge Wind Luftdruck Luftfeuchtigkeit
00:00 +19°C° 0.3 mm 2 m/S 747 mmHg 94%
01:00 +19°C° 0.3 mm 2 m/S 747 mmHg 94%
02:00 +19°C° 0.3 mm 2 m/S 747 mmHg 94%
03:00 +18°C° 0 mm 3 m/S 747 mmHg 93%
04:00 +18°C° 0 mm 3 m/S 747 mmHg 93%
05:00 +18°C° 0 mm 3 m/S 747 mmHg 93%
06:00 +19°C° 0 mm 3 m/S 748 mmHg 89%
07:00 +20°C° 0 mm 3 m/S 748 mmHg 86%
08:00 +20°C° 0 mm 3 m/S 748 mmHg 82%
09:00 +21°C° 0 mm 3 m/S 748 mmHg 76%
10:00 +24°C° 0 mm 3 m/S 748 mmHg 69%
11:00 +25°C° 0 mm 3 m/S 748 mmHg 63%
12:00 +25°C° 0 mm 3 m/S 748 mmHg 61%
13:00 +26°C° 0 mm 3 m/S 748 mmHg 58%
14:00 +26°C° 0 mm 3 m/S 748 mmHg 56%
15:00 +26°C° 0 mm 3 m/S 748 mmHg 60%
16:00 +25°C° 0 mm 3 m/S 748 mmHg 65%
17:00 +24°C° 0 mm 3 m/S 748 mmHg 69%
18:00 +24°C° 0 mm 3 m/S 748 mmHg 72%
19:00 +22°C° 0 mm 4 m/S 748 mmHg 75%
20:00 +21°C° 0 mm 4 m/S 747 mmHg 78%
21:00 +20°C° 0 mm 3 m/S 748 mmHg 81%
22:00 +20°C° 0 mm 3 m/S 748 mmHg 85%
23:00 +19°C° 0 mm 3 m/S 748 mmHg 88%
Mehr zeigen

Wir brauchen deine Erlaubnis

Meteoprog und unser Service Anbieter werden persönliche Daten aufbewahren, so wie Cookies, Geräte Bezeichnung oder ähnliche Technologien von deinem Gerät und Prozess, so wie Persönliche Daten Inhalte und Werbungen, genauso wie social Media und den Verkehr zu analysieren.

  • Aufbewahrung und/oder Zugang zu deiner Geräte Informationen.

    Cookies, Geräte Bezeichnung oder andere Informationen, können aufbewahrt oder Zugang zu deinem Gerät erhalten, für den Grund, der oben angegeben wird.

  • Personalisierte Werbung und Inhalte, Messungen, Einblick in das Publikum und Produkt Entwicklung.

    Werbungen und Inhalte können personalisiert werden, basierend auf ein Profil. Mehr Daten können besser personalisierte Werbungen und Inhalte hinzufügen. Werbung und Inhalte können gezeigt und gemessen werden. Einblicke über das Publikum, welche die Werbung gesehen haben und den Inhalt, können abgeleitet werden. So wie Daten können genutzt werden, um es zu verbessern oder die Benutzer Erfahrung zu verbessern das System und die Software.

Wenn du “Ich stimme zu” klickst, erlaubst du uns, die Cookies zu benutzen die Geräte Bezeichnung, den Web oder ähnliche Technologien zu benutzen. Deine Settings, können in deinem Gerät bei deinem Browser geändert werden.

Für den bestimmten Zweck, berechtigten Interessen beruhen darauf, mehr als auf den Inhalt. Du kannst mehr darüber in unseren Privaten und Cookie Politik lesen.